• Join FlightAware (Why Join?)
  • Login
  • US Flag 
01:47PM EST


 

Airport Tracker/Info


-or-


 

Live Flight TrackerFlight Track Log ✈ DAL918 ✈ 02-May-2013 ✈ KATL - KAGS

Flight Track Log - Related Links

Times and Time Zones

All times are in EDT time to prevent confusion due to time zone crossing. See the DAL918 flight status page for this flight to view local times or setup timezone preferences in your user account.

Time Position Orientation Groundspeed Altitude Reporting Facility
EDT Latitude Longitude Course Direction KTS MPH feet Rate Location/Type
08:37PM 33.6333 -84.4167 90° East 151 174 2,100  Level Atlanta TRACON
08:39PM 33.6000 -84.2667 105° East 248 285 6,600 2,227 Climbing Atlanta TRACON
08:41PM 33.6214 -83.9921 92° East  Level FlightAware Approximate
08:42PM 33.6173 -83.8832 93° East  Level FlightAware Approximate
08:42PM 33.6022 -84.0139 89° East 278 320 12,900  Level Atlanta Center
08:43PM 33.6042 -83.7753 90° East  Level Estimated
08:43PM 33.6042 -83.9092 89° East 301 346 14,700  Level Atlanta Center
08:44PM 33.6125 -83.8019 85° East 321 369 16,700 1,150 Climbing Atlanta Center
08:45PM 33.6225 -83.6844 84° East 340 391 17,000 150 Climbing Atlanta Center
08:46PM 33.6306 -83.5747 85° East 351 404 17,000  Level Atlanta Center
08:47PM 33.6425 -83.4475 84° East 369 425 17,000  Level Atlanta Center
08:48PM 33.6586 -83.3225 81° East 374 430 17,000  Level Atlanta Center
08:49PM 33.6536 -83.2003 93° East 368 423 17,000  Level Atlanta Center
08:50PM 33.6403 -83.0831 98° East 363 418 17,000 -750 Level Atlanta Center
08:51PM 33.6289 -82.9733 97° East 344 396 15,500 -1,850 Descending Atlanta Center
08:52PM 33.6156 -82.8689 99° East 325 374 13,300 -1,950 Descending Atlanta Center
08:53PM 33.6017 -82.7569 98° East 314 361 11,600 -1,550 Descending Atlanta Center
08:54PM 33.5861 -82.6622 101° East 301 346 10,200 -1,400 Descending Atlanta Center
08:55PM 33.5539 -82.5781 115° Southeast 282 325 8,800 -1,350 Descending Atlanta Center
08:56PM 33.5236 -82.4989 115° Southeast 269 310 7,500 -1,300 Descending Atlanta Center
08:57PM 33.4956 -82.4222 114° Southeast 258 297 6,200 -1,200 Descending Atlanta Center
08:58PM 33.4694 -82.3503 113° Southeast 248 285 5,100 -1,100 Descending Atlanta Center
08:59PM 33.4458 -82.2886 115° Southeast 233 268 4,000 -950 Descending Atlanta Center
09:00PM 33.4156 -82.2169 117° Southeast 233 268 3,200 -800 Descending Atlanta Center
09:02PM 33.4000 -82.1555 90° East  Level FlightAware Approximate